www.pogodaiklimat.ru

Погода и климат >> Архив погоды >> Новая Зеландия >> Тауранга


ПОГОДА в Тауранге

  • Прогноз погоды в Тауранге
  • Монитор погоды в Тауранге

АРХИВ ПОГОДЫ в Тауранге

Время (UTC), дата Ветер
(напр.,м/с)
 
Видим.   Явления Облачность Т
(С)
Тd
(С)
f
(%)
Тe
(С)
Тes
(С)
Комфортность P
(гПа)
Po
(гПа)
Тmin
(С)
Tmax
(С)
R
(мм)
R24
(мм)
S
(см)
15 14.07 СЗ 5 20 км н/о +11.2 +7.5 78 +9 +9 1001.6 1001.2
18 14.07 З 5 20 км н/о +11.2 +6.9 75 +9 +9 1002.8 1002.4
21 14.07 З 5 20 км н/о +12.1 +7.5 73 +10 +10 1005.4 1005.0
00 15.07 З 2 20 км н/о +13.5 +6.6 63 +13 +13 1007.0 1006.6 +9.4 9
03 15.07 СЗ 2 20 км н/о +14.9 +7.0 59 +15 +15 1006.2 1005.8
06 15.07 С 2 10 км н/о +12.9 +6.5 65 +12 +12 1006.5 1006.1
09 15.07 С 5 20 км н/о +14.0 +7.5 65 +12 +12 1006.1 1005.7
12 15.07 С 5 10 км н/о +13.8 +10.2 79 +12 +12 1003.9 1003.5 +15.5
15 15.07 С 8 10 км н/о +15.5 +10.3 71 +14 +14 1001.3 1000.9
18 15.07 С 6 10 км н/о +15.5 +11.2 76 +14 +14 998.2 997.8 0.2
21 15.07 З 6 10 км н/о +12.7 +11.7 94 +10 +10 996.9 996.5
00 16.07 СЗ 2 20 км н/о +14.4 +10.5 77 +14 +14 995.2 994.8 +12.1 9
03 16.07 З 4 20 км н/о +14.2 +9.6 74 +13 +13 994.0 993.6
06 16.07 З 4 20 км н/о +11.9 +8.1 78 +10 +10 995.0 994.6 1
09 16.07 З 4 10 км н/о +10.7 +7.8 82 +8 +8 995.6 995.2
12 16.07 З 4 20 км н/о +10.6 +7.8 83 +8 +8 995.5 995.1 +15.6
15 16.07 СЗ 4 10 км н/о +12.2 +8.5 78 +10 +10 994.3 993.9
18 16.07 З 8 20 км н/о +11.9 +7.9 76 +9 +9 994.4 994.0 3
21 16.07 З 7 20 км н/о +12.8 +7.7 71 +10 +10 996.2 995.8
00 17.07 З 12 10 км н/о +14.9 +7.4 61 +12 +12 996.9 996.5 +10.2 4
03 17.07 З 9 20 км н/о +13.9 +6.7 62 +11 +11 997.4 997.0
06 17.07 СЗ 5 20 км н/о +12.2 +7.1 71 +10 +10 998.6 998.2 0.8
09 17.07 З 6 20 км н/о +10.1 +6.8 80 +7 +7 1000.9 1000.5
12 17.07 З 8 20 км н/о +10.3 +5.9 74 +7 +7 1002.3 1001.9 +15.7 0.2
15 17.07 Ю 1 20 км н/о +8.9 +5.2 78 +8 +8 1005.0 1004.5
18 17.07 ЮЗ 1 20 км н/о +7.7 +4.7 81 +7 +7 1006.7 1006.2
21 17.07 В 1 10 км н/о +9.3 +8.5 95 +10 +10 1009.3 1008.8
00 18.07 З 3 20 км н/о +14.5 +7.0 61 +14 +14 1009.5 1009.1 +5.7 1
03 18.07 З 2 20 км н/о +14.8 +7.5 62 +15 +15 1008.6 1008.2
06 18.07 СЗ 2 20 км н/о +13.3 +8.3 72 +13 +13 1009.7 1009.3
09 18.07 ЮВ 1 20 км н/о +11.7 +8.6 81 +12 +12 1010.7 1010.2
12 18.07 Ю 1 10 км н/о +10.5 +9.7 95 +10 +10 1010.4 1009.9 +15.7
15 18.07 З 1 20 км н/о +9.4 +8.9 97 +10 +10 1008.9 1008.4
18 18.07 ЮВ 1 4000 м н/о +8.6 +8.1 97 +8 +8 1007.0 1006.5 0.2
21 18.07 СВ 5 10 км н/о +14.6 +13.5 93 +13 +13 1005.8 1005.4
00 19.07 С 6 10 км н/о +15.6 +14.0 90 +14 +14 1002.9 1002.5 +8.0 3
03 19.07 С 4 10 км н/о +13.8 +13.5 98 +12 +12 1000.5 1000.1
06 19.07 СЗ 2 20 км н/о +12.7 +11.2 91 +12 +12 1000.0 999.6 6
09 19.07 штиль 0 4000 м н/о +10.1 +9.5 96 +9 +9 1000.4 1000.0
12 19.07 ЮЗ 1 10 км н/о +10.6 +10.3 98 +11 +11 1000.7 1000.3 +16.3
15 19.07 З 3 20 км н/о +11.2 +11.0 99 +9 +9 1000.9 1000.5
18 19.07 З 4 20 км н/о +10.9 +9.8 93 +8 +8 1001.2 1000.8 1
21 19.07 З 5 20 км н/о +12.7 +10.1 84 +10 +10 1002.6 1002.2
00 20.07 З 6 20 км н/о +15.3 +8.1 62 +14 +14 1003.0 1002.6 +9.6 7
03 20.07 З 7 20 км н/о +15.3 +6.6 56 +14 +14 1002.5 1002.1
06 20.07 З 5 20 км н/о +12.7 +7.5 71 +11 +11 1003.8 1003.4
09 20.07 З 3 20 км н/о +10.7 +7.1 78 +9 +9 1005.0 1004.6
12 20.07 Ю 1 10 км н/о +7.6 +6.7 94 +7 +7 1005.4 1004.9 +16.1
15 20.07 ЮВ 1 4000 м н/о +6.0 +5.8 99 +6 +6 1005.4 1004.9
18 20.07 ЮВ 1 2000 м н/о +5.1 +5.1 100 +4 +4 1005.8 1005.3
21 20.07 Ю 1 20 км н/о +8.6 +8.6 100 +9 +9 1007.6 1007.1
00 21.07 С 2 20 км н/о +14.3 +8.6 69 +14 +14 1008.0 1007.6 +3.5
03 21.07 З 3 20 км н/о +15.5 +5.9 53 +15 +15 1007.3 1006.9
06 21.07 С 2 20 км н/о +11.2 +6.0 70 +11 +11 1009.2 1008.7
09 21.07 ЮЗ 2 20 км н/о +8.3 +6.5 88 +6 +6 1011.2 1010.7
12 21.07 ЮЗ 2 20 км н/о +6.4 +5.6 95 +4 +4 1011.8 1011.3 +15.8

 

Местоположение метеостанции Тауранга (Новая Зеландия): широта -37.66 долгота 176.20 высота над уровнем моря 5 м.

В архиве по умолчанию представлена погода в Тауранге за последнюю неделю. Архивные данные за месяц целиком и за предыдущие месяцы, начиная с января 2011 года, Вы можете получить, выбрав интересующий диапазон дат из раскрывающегося списка и нажав кнопку "Ввод!".


*Определитесь, кто Вы:
робот инопланетянин человек

Внимание! Время в таблицах - всемирное. Для получения местного времени необходимо прибавить поправку, которая равна 12 ч.

Смотрите также архив погоды в соседних городах и на ближайших метеорологических станциях:

Погода на Таупо (Новая Зеландия) (120 км)
Погода в Тахароа (Новая Зеландия) (143 км)
Погода в Окленде (Новая Зеландия) (144 км)
Погода в Хикс-Бей (Новая Зеландия) (185 км)
Погода в Гисборне (Новая Зеландия) (191 км)
Погода на Уэйауру (Новая Зеландия) (203 км)
Погода в Нейпире (Новая Зеландия) (207 км)
Погода на Мокохинау (Новая Зеландия) (219 км)
Погода в Нью-Плимуте (Новая Зеландия) (232 км)
Погода в Пальмерстон-Норте (Новая Зеландия) (299 км)

Пояснения к столбцам:

Ветер - указаны скорость ветра в м/с - средняя за 10 мин, порывы в срок и между сроками (в фигурных скобках) и направление, откуда дует ветер: С - северный, СВ - северо-восточный, В - восточный, ЮВ - юго-восточный, Ю - южный, ЮЗ - юго-западный, З - западный, СЗ - северо-западный.
Видимость - горизонтальная дальность видимости в метрах или километрах. При видимости от 1 до 10 км при отсутствии осадков обычно наблюдается дымка, при ухудшении видимости до 1 км и менее - туман. В сухую погоду видимость может ухудшаться дымом, пылью или мглою.
Явления - указаны атмосферные явления, наблюдавшиеся в срок или в последний час перед сроком; фигурными скобками обозначены явления, наблюдавшиеся между сроками (за 1-3 часа до срока); квадратными скобками обозначены град или гололедные отложения с указанием их диаметра в мм.
Облачность - указаны через наклонную черту общая и нижняя облачность в баллах и высота нижней границы облаков в метрах; квадратными скобками обозначены формы облаков: Ci - перистые, Cs - перисто-слоистые, Cc - перисто-кучевые, Ac - высококучевые, As - высокослоистые, Sc - слоисто-кучевые, Ns - слоисто-дождевые, Cu - кучевые, Cb - кучево-дождевые. Подробнее классификацию облаков см. в Атласе облаков (PDF).
T - Температура воздуха - температура, измеренная на высоте 2 м над землей.
Td - Температура точки росы - температура, при понижении до которой содержащийся в воздухе водяной пар достигнет насыщения.
f - Относительная влажность воздуха - влажноcть воздуха, измеренная на высоте 2 м над землей.
Te - Эффективная температура - температура, которую ощущает одетый по сезону человек в тени. Характеристика душности погоды. При расчете учитывается влияние влажности воздуха и скорости ветра на теплоощущения человека.
Tes - Эффективная температура на солнце - температура, которую ощущает человек, с поправкой на солнечный нагрев. Характеристика знойности погоды. Зависит от высоты солнца над горизонтом, облачности и скорости ветра. Ночью, в пасмурную погоду, а также при ветре 12 м/с и более поправка равна нулю.
P - Атмосферное давление - приведенное к уровню моря атмосферное давление.
Po - Атмосферное давление - измеренное на уровне метеостанции атмосферное давление.
Tmin - Минимальная температура - минимум температуры воздуха на высоте 2 м над землей.
Tmax - Максимальная температура - максимум температуры воздуха на высоте 2 м над землей.
R - Количество осадков - Количество выпавших осадков за период времени, мм. При наведении курсора мыши на число - период времени, за который выпало указанное количество осадков.
R24 - Количество осадков - Количество выпавших осадков за 24 часа, мм.
S - Снежный покров - Высота снежного покрова, см. При наведении курсора мыши на число - состояние снежного покрова и степень покрытия местности в баллах.